Location: Unspecified
(0.0000°N, 0.0000°E)
Time: 18:13:08
(UTC+00:00)

Courier 1B Rocket - Pass Details

Date: 16 April 2021
Orbit: 920 x 1202 km, 28.3° (Epoch: 14 May)

Event Time Altitude Azimuth Distance (km) Brightness Sun altitude
Rises 19:04:30 0° 272° (W) 3,642 9.7 -15.9°
Reaches altitude 10° 19:07:45 10° 287° (WNW) 2,737 8.7 -16.7°
Maximum altitude 19:12:41 22° 335° (NNW) 2,076 7.1 -17.9°
Drops below altitude 10° 19:17:53 10° 24° (NNE) 2,886 7.3 -19.2°
Sets 19:21:26 0° 38° (NE) 3,896 7.9 -20.1°
